Lid_Strength_Index
5 4 4 5 5 5 6 5 5 6 6 6 6 6 6 6 6 6 5 5 5 5 5 5 5 5 6 11 12 7 3 5 3 5 6 9 10 12 14 14 13 15 14 13 12 12 12
5 5 5 5 5 5 5 5 6 6 5 6 6 6 6 6 6 6 5 5 6 6 6 5 5 5 9 15 8 7 7 7 4 6 7 9 10 10 13 13 14 13 12 12 12 13 13
5 5 5 5 5 6 6 6 6 6 6 6 6 6 6 6 6 6 5 6 6 6 6 5 5 7 11 12 7 8 8 9 7 5 7 7 8 9 11 14 11 12 14 13 13 13 13
5 5 5 5 5 6 6 6 6 6 6 6 6 6 6 6 6 6 6 5 5 5 5 5 5 8 13 7 7 7 8 8 7 7 8 7 7 10 12 12 12 15 14 16 14 12 12
5 5 5 6 6 6 6 6 6 6 6 6 6 6 6 6 6 6 6 5 5 5 5 5 7 9 13 6 7 6 6 8 7 7 8 5 7 10 12 14 16 16 19 18 16 13 12
5 6 6 6 6 6 7 6 6 6 6 6 5 5 5 6 5 5 5 6 6 6 6 6 7 10 10 11 7 5 5 7 8 8 9 9 10 13 13 14 18 18 19 17 17 14 13
6 6 6 6 6 6 6 6 6 6 6 6 6 6 6 5 5 5 6 10 13 12 11 11 10 11 9 7 5 6 5 7 8 10 14 9 12 15 14 12 13 14 16 16 15 13 14
6 6 6 7 7 7 7 7 7 6 6 6 6 6 6 5 5 5 7 12 11 11 15 11 11 11 8 7 11 9 6 9 10 12 11 11 14 10 11 12 13 14 16 17 15 14 14
6 7 7 7 7 7 7 7 6 6 5 5 5 5 5 5 6 8 11 11 9 9 15 13 10 10 9 7 9 9 6 8 10 11 11 13 12 9 11 12 14 14 15 17 16 14 14
7 7 7 7 8 8 7 7 7 6 6 5 5 6 6 6 10 11 11 9 9 8 15 13 9 7 6 5 8 4 4 6 8 11 10 11 8 10 11 13 13 16 13 14 15 16 19
7 8 8 8 8 7 7 7 7 6 6 6 6 5 5 5 9 9 9 8 7 7 21 10 8 3 5 7 6 7 3 6 10 9 10 12 11 11 12 12 11 14 12 13 14 16 17
8 8 8 8 8 8 7 6 6 6 6 6 5 5 5 8 8 7 5 7 7 13 19 11 8 9 8 8 8 6 7 5 6 9 9 10 7 9 9 9 9 10 12 13 14 15 19
8 8 8 8 7 7 7 6 6 6 6 5 5 5 6 6 9 6 6 7 14 18 10 11 11 9 9 10 9 9 10 11 13 16 15 11 11 8 8 10 9 12 15 20 20 20 21
8 8 8 7 7 7 6 6 6 6 5 5 5 5 7 6 5 4 6 10 17 13 13 9 9 10 12 10 10 10 11 13 10 12 14 16 17 11 8 10 12 12 14 19 22 21 20
8 8 7 7 7 7 6 6 6 5 5 5 5 9 9 7 4 3 7 14 15 13 10 11 11 12 12 10 11 11 12 13 11 11 15 16 16 9 9 8 9 13 14 13 16 16 18
8 7 7 7 7 6 6 6 5 5 5 5 9 11 9 5 3 4 9 13 12 9 9 10 15 12 15 13 14 13 13 10 11 10 9 13 17 11 10 9 8 10 10 15 16 20 20
8 8 7 7 7 7 6 5 5 5 5 5 11 13 8 5 2 7 13 12 10 8 8 11 13 13 13 14 13 14 13 11 9 10 9 11 14 14 11 12 13 12 12 12 13 16 20
8 8 7 7 7 6 6 5 5 5 5 6 10 14 7 3 10 8 11 10 8 9 7 9 9 11 12 12 13 13 14 11 8 9 13 10 13 17 15 11 9 10 11 13 15 18 17
8 8 7 7 7 6 5 5 5 5 5 7 11 11 5 4 14 13 10 10 9 9 10 10 11 10 10 12 15 12 11 9 8 9 11 11 14 18 17 13 11 12 11 11 13 14 17
8 8 8 7 6 6 5 5 5 4 4 8 9 12 10 8 9 9 11 12 12 8 9 9 10 9 11 12 11 13 12 9 8 9 8 9 13 15 19 17 13 14 12 11 12 17 16
8 8 7 7 6 5 5 5 4 4 3 8 10 12 8 13 10 10 10 11 12 12 9 8 10 10 11 14 13 13 11 10 9 8 9 11 15 14 14 13 12 12 12 12 13 12 15
8 8 7 7 6 5 5 4 4 4 3 8 9 9 7 8 9 10 10 11 13 11 11 11 11 10 10 13 12 13 11 11 12 10 11 10 15 13 15 13 12 14 12 12 11 12 12
8 7 7 6 6 5 5 4 3 3 3 6 4 3 6 9 11 11 11 11 11 11 9 9 10 11 11 10 8 9 8 8 9 11 12 12 14 15 18 14 14 17 13 12 12 11 12
8 7 7 7 6 5 4 3 3 2 2 4 4 5 8 12 11 12 11 10 11 11 12 10 9 11 9 7 7 7 8 9 10 10 10 12 14 15 17 16 21 14 10 10 11 11 11
8 8 7 6 6 5 4 3 2 2 1 3 3 5 8 12 10 11 10 11 11 10 11 10 9 8 7 8 11 13 13 13 12 10 10 10 14 16 18 19 16 14 12 12 12 14 10
8 8 8 7 5 4 3 2 2 1 0 3 3 3 6 10 12 9 11 10 12 12 11 11 8 7 8 11 12 16 18 15 16 14 10 11 13 14 16 19 21 14 10 8 9 16 9
8 8 8 6 5 4 3 2 1 1 0 2 3 3 5 10 9 9 11 11 9 11 13 11 10 11 10 14 14 16 16 12 17 16 15 15 14 16 17 18 15 11 8 7 15 15 8
8 8 7 6 5 4 2 2 1 1 1 2 3 3 5 8 8 8 8 10 10 11 13 11 13 11 12 15 14 14 15 14 14 13 14 15 16 17 16 17 19 9 9 13 10 8 8
8 8 7 5 4 3 2 1 1 1 1 1 6 4 3 7 8 6 6 6 8 8 10 10 12 12 13 14 13 14 14 13 14 17 11 16 13 15 14 14 10 10 10 9 8 10 10